Regional Weather Roundup
Issued by NWS

Home | Current Version | Previous Version | Graphics & Text | Print | Product List | Glossary On
Versions: 1 2 3 4 5 6 7 8 9 10 11 12 13 14 15 16 17 18 19 20 21 22 23 24 25 26 27 28 29 30 31 32 33 34 35 36 37 38 39 40 41 42 43 44 45 46 47 48 49 50
000
ASUS43 KFSD 011810
RWRSD

WEATHER ROUNDUP FOR SOUTH DAKOTA
NATIONAL WEATHER SERVICE SIOUX FALLS SD
1200 PM CST SUN MAR 01 2015

NOTE: "FAIR" INDICATES FEW OR NO CLOUDS BELOW 12,000 FEET WITH NO
SIGNIFICANT WEATHER AND/OR OBSTRUCTIONS TO VISIBILITY.


SDZ001>005-009-010-012>017-011900-
NORTHWEST AND NORTH CENTRAL SOUTH DAKOTA

CITY           SKY/WX    TMP DP  RH WIND       PRES   REMARKS
BUFFALO          N/A     23  11  60 NW18G30   30.19R WCI   9
FAITH            N/A     26   9  48 NW22G29   30.27  WCI  12
MOBRIDGE       PTSUNNY   28  16  60 NW16      30.25R WCI  16
$$

SDZ012>016-024>037-041>051-057-063-072>074-011900-
SOUTHWEST AND SOUTH CENTRAL SOUTH DAKOTA

CITY           SKY/WX    TMP DP  RH WIND       PRES   REMARKS
RAPID CTY ARPT SUNNY     27  14  58 N18       30.28R WCI  14
PIERRE         SUNNY     32   9  38 W23G31    30.30R WCI  19
CUSTER         MOSUNNY   19   3  49 W13       30.14R WCI   6
ELLSWORTH AFB  SUNNY     26  12  56 N23       30.26S WCI  11
PHILIP         SUNNY     31   8  38 NW21G32   30.31S WCI  18
PINE RIDGE     SUNNY     30   8  39 NW13      30.28S WCI  20
WINNER         FAIR      33   7  33 NW18G25   30.31S WCI  22
$$

SDZ004>011-016>023-039-040-011900-
NORTHEAST SOUTH DAKOTA

CITY           SKY/WX    TMP DP  RH WIND       PRES   REMARKS
ABERDEEN       MOSUNNY   26  15  63 NW15      30.27S WCI  14
WATERTOWN      SUNNY     23  12  62 W16       30.23S WCI  10
SISSETON         N/A     24  11  57 W17       30.23S WCI  11
$$

SDZ017-020-022-023-036>040-048>070-011900-
SOUTHEAST SOUTH DAKOTA

CITY           SKY/WX    TMP DP  RH WIND       PRES   REMARKS
SIOUX FALLS    MOSUNNY   28  14  55 W17G23    30.31F WCI  16
HURON          SUNNY     28  16  60 W16       30.31S WCI  16
CHAMBERLAIN    CLOUDY    32  10  40 W18G25    30.31S WCI  20
MITCHELL       SUNNY     33   9  36 NW18G25   30.33S WCI  22
YANKTON        MOSUNNY   30  12  47 W14       30.37S WCI  20
$$

ABBREVIATIONS USED IN REMARKS
   TC - TEMPERATURE IN CELSIUS
  WCI - WIND CHILL INDEX
   HX - HEAT INDEX
  VSB - VISIBILITY




USA.gov is the U.S. government's official web portal to all federal, state and local government web resources and services.